Vertical_Velocity
1 0 -0 -2 -2 -2 -2 -1 1 2 1 0 -0 -0 0 1 -2 -2 -1 -0 -4 -3 -0 2 0 2 5 8 6 4 4 6 7 5 2 1 -0 2 5 9 11 10 9 7 7 7 7 6 4 3 3 3 3 1 0 0 -2 -3 -4 -2 -2 -1 0 2 2 3 3 0 -1
2 2 1 0 -1 -2 -3 -4 -2 0 1 0 0 -0 -1 -0 -2 -1 -1 -1 -3 -2 1 2 0 1 3 6 10 11 10 7 5 4 1 -0 -1 -0 1 2 7 12 16 16 14 11 6 1 1 1 2 3 3 1 -1 -1 -2 -3 -3 -1 1 2 3 3 2 2 1 -1 -1
0 1 2 2 2 0 -2 -4 -4 -2 -1 -1 0 0 -1 -2 -2 -2 -2 -1 -1 0 2 3 2 1 1 4 9 14 15 12 7 3 -0 -1 0 0 -0 -2 -3 -2 -1 0 0 -1 -3 -4 -2 1 3 4 2 0 -1 -1 0 0 0 3 4 4 3 1 2 1 -0 -2 -1
-0 1 2 3 3 3 1 -1 -3 -3 -2 -1 -1 -0 -1 -1 -2 -3 -2 -0 1 2 2 3 3 2 2 3 5 8 11 11 7 3 -0 1 2 1 -0 -1 -4 -7 -8 -7 -6 -5 -4 -4 -2 0 2 3 1 -0 -1 1 3 4 3 4 5 3 0 -0 1 0 -1 -2 -1
-1 1 2 2 3 4 4 3 0 -2 -2 -1 -2 -2 -1 0 -2 -4 -2 1 2 2 2 2 3 3 4 4 3 4 7 12 12 12 10 9 6 3 -0 -1 -1 -0 3 7 10 10 10 9 9 10 11 11 9 7 6 6 6 4 3 3 2 -0 -1 -1 -0 -0 -0 -1 -0
-1 1 3 3 4 4 5 6 4 1 -1 -1 -3 -3 -2 0 -2 -3 -2 2 3 3 2 1 2 4 5 5 3 3 6 13 17 18 16 12 7 3 0 -0 6 13 19 20 19 18 17 17 19 22 25 27 24 21 17 14 8 3 1 0 -0 -0 -0 -0 -1 -0 -0 -1 -0
-1 1 2 2 3 4 5 6 6 4 1 -0 -2 -3 -3 -1 0 -1 -2 -0 3 4 2 0 1 2 4 6 6 5 5 5 7 8 8 7 5 2 -0 1 9 15 18 14 10 9 9 11 15 20 25 28 26 22 18 14 7 3 1 1 1 2 3 1 1 0 -0 -2 -0
-0 1 2 1 2 3 4 5 6 5 4 2 -0 -3 -4 -2 0 1 -0 -1 2 3 2 1 -0 -0 1 4 6 6 3 -0 0 2 5 8 9 7 4 1 4 7 9 8 6 4 4 7 10 14 17 19 17 14 11 7 4 1 1 0 1 1 2 1 1 0 -1 -2 -1
-0 1 1 1 1 2 3 4 5 5 4 3 1 -1 -3 -4 -2 1 3 2 0 1 2 2 0 -0 -0 1 2 1 -0 -2 2 5 8 12 15 15 12 6 3 2 4 6 6 6 7 8 8 8 9 9 8 6 4 2 -1 -2 -2 -2 -2 -2 -1 0 0 -0 -1 -2 -2
-0 0 1 1 1 2 2 3 4 4 4 3 2 1 -1 -3 -3 -1 2 4 3 2 2 2 2 1 1 0 -1 -2 -3 -0 4 7 11 16 20 20 18 13 8 5 4 5 7 9 9 9 6 5 3 3 2 1 0 -1 -2 -3 -3 -2 -2 -2 -2 -1 -0 -1 -1 -2 -3
-0 0 1 0 1 1 2 3 4 4 4 3 3 2 1 -1 -2 -1 1 4 6 5 4 3 3 2 1 1 -0 -2 -2 2 5 9 13 19 23 24 23 19 13 8 5 4 5 7 8 8 7 5 3 2 2 1 1 -0 -1 -1 -1 -1 -1 -1 -1 -1 -0 -1 -1 -1 -2
-0 0 0 0 0 1 2 3 4 5 5 4 4 3 2 1 0 0 2 4 6 6 5 2 2 2 2 2 1 0 1 4 7 9 13 20 24 24 23 19 15 10 6 3 3 4 5 7 7 6 6 5 5 4 3 2 2 1 1 1 1 0 -0 0 0 0 0 0 -0
-0 -0 -0 -0 -0 1 2 3 4 5 5 4 4 3 3 2 2 2 2 3 4 6 6 3 2 1 2 3 3 3 3 4 6 8 12 18 22 21 18 15 12 9 7 4 3 2 2 4 4 5 5 6 6 5 4 4 3 2 2 1 1 0 -0 0 1 0 0 0 -0
-0 -0 -1 -1 -0 1 2 4 4 5 4 4 3 3 3 3 3 3 3 2 4 6 7 6 2 1 1 3 4 4 3 3 4 6 10 15 18 17 14 11 8 6 4 2 1 0 0 0 1 1 2 3 3 3 2 2 1 1 0 -0 -0 -1 -1 -0 -0 -1 -1 -2 -2
-1 -1 -1 -1 -1 -0 1 3 3 4 3 3 3 3 3 3 3 3 3 2 3 4 5 6 2 0 0 3 4 3 2 2 3 5 8 11 14 14 13 10 6 3 0 -2 -2 -2 -2 -2 -1 -1 -0 0 0 -0 -1 -1 -1 -1 -1 -1 -1 -1 -2 -2 -2 -3 -3 -4 -3
-1 -2 -2 -2 -2 -1 0 1 2 3 2 2 2 2 3 3 3 3 3 2 2 2 3 2 0 1 3 4 4 4 3 2 3 5 6 7 9 11 12 10 6 3 -1 -3 -2 -2 -2 -1 -0 1 1 0 -1 -2 -2 -2 -1 -0 -0 -1 -1 -1 -2 -2 -3 -3 -4 -4 -2
-2 -2 -2 -2 -1 -1 -0 0 1 2 2 1 1 2 2 2 2 2 2 2 2 2 2 0 1 2 4 5 5 5 4 4 5 5 4 4 5 8 11 12 7 2 -1 -2 -1 1 2 3 4 4 3 1 -0 -1 -2 -1 -0 0 0 -0 -0 -1 -1 -2 -2 -3 -3 -3 -2
-1 -1 -1 -1 -1 -1 -0 0 1 1 1 1 1 1 2 2 2 2 1 1 2 3 3 1 1 2 4 5 5 6 8 13 11 8 4 2 3 8 12 13 8 2 -1 -2 0 3 6 7 6 5 3 2 0 -1 -1 -1 -0 -0 0 0 -0 -0 -1 -1 -2 -2 -3 -3 -2
-0 -0 -0 -0 -0 -0 -0 0 0 0 1 1 1 1 1 1 1 1 1 1 1 2 2 2 2 2 4 5 4 6 11 18 16 10 5 2 4 10 14 14 8 2 -2 -3 1 5 8 8 5 3 1 0 -1 -1 -2 -1 -1 -1 -0 -0 -0 -0 -1 -1 -1 -2 -2 -2 -2
-0 -0 -0 -0 -0 -0 -0 -0 -0 -0 0 0 1 1 1 1 1 2 2 1 1 1 1 2 2 2 4 4 3 4 8 12 10 6 2 0 6 12 15 14 7 1 -2 -0 6 10 10 7 4 2 0 -1 -2 -2 -2 -2 -1 -1 -1 -1 -1 -1 -0 -0 -0 -1 -1 -2 -1
-0 -0 -0 -0 -0 -0 -0 -0 -0 -0 -0 0 1 1 1 1 2 2 2 2 2 2 2 2 1 2 2 3 2 2 2 3 1 -1 -2 -1 6 12 16 13 6 1 1 8 14 15 12 8 4 2 0 -0 -1 -1 -1 -1 -1 -1 -1 -1 -1 -1 -0 -0 -0 -0 -1 -1 -1
0 1 1 1 0 0 -0 -0 0 0 0 0 1 1 1 1 1 1 2 2 1 1 2 4 4 4 3 3 3 2 1 -1 -2 -3 -3 0 8 14 16 13 7 6 8 16 19 16 11 5 2 0 0 0 0 0 0 0 0 0 -0 -0 -0 -0 -0 -0 -0 -0 -0 -0 -0
1 1 2 2 1 0 -0 -1 -0 -0 0 0 0 1 1 1 1 1 1 1 -1 2 8 18 16 12 7 4 4 4 3 1 -0 -1 1 4 11 15 16 13 10 12 16 20 18 12 5 -1 -2 -1 -0 0 0 0 0 0 0 0 0 0 0 0 -0 -0 -0 -0 -0 -0 -0
1 1 2 1 1 1 0 -0 -1 -1 -1 -0 0 1 1 1 0 0 1 0 -3 3 14 26 23 18 12 8 7 6 6 4 3 4 5 8 11 12 12 11 12 16 19 19 13 5 -2 -5 -3 -2 -0 -0 -1 -1 -1 -1 -0 0 0 0 0 0 -0 -1 -1 -0 0 0 -0
0 1 1 1 1 1 0 -0 -1 -1 -1 -0 2 3 2 -0 -1 -0 0 0 -4 -1 7 18 18 16 13 11 9 8 6 6 6 6 7 7 8 7 8 9 13 16 18 15 6 -2 -6 -6 -3 -1 -1 -1 -1 -2 -1 -1 -0 0 1 1 0 -0 -0 -1 -0 0 0 0 0
0 0 1 1 1 1 0 0 -0 -1 -1 0 4 6 5 1 -1 -1 0 0 -3 -4 -1 5 8 10 11 10 10 9 8 7 6 6 6 5 4 4 6 9 13 15 14 8 -0 -5 -6 -4 -2 -1 -1 -1 -1 -1 -1 -1 -0 1 1 1 1 0 -0 -1 -0 0 0 1 1
0 1 1 1 1 1 0 -0 -1 -1 -1 1 4 7 6 3 1 0 0 -0 -2 -3 -3 -1 3 5 7 9 10 10 10 9 7 6 5 4 4 5 7 10 12 11 7 1 -3 -4 -4 -2 -1 -1 -1 -1 -1 -1 -1 -1 -0 0 1 1 0 0 0 -0 -0 -0 0 1 1
0 1 1 1 1 1 1 -0 -1 -1 -1 0 3 5 5 3 2 1 -0 -1 -2 -1 -1 0 2 4 6 8 10 11 11 10 8 6 5 5 6 7 8 8 7 4 1 -1 -2 -1 -1 -1 -1 -1 -1 -1 -1 -1 -1 -1 -1 -0 -0 0 0 -0 -0 -0 -1 -0 -0 0 1
1 1 1 2 2 2 1 1 -0 -1 -0 0 2 3 3 3 2 1 0 -1 -1 -1 0 1 2 4 6 8 10 12 12 10 8 6 6 6 6 6 4 3 1 1 0 1 1 1 1 0 -1 -1 -2 -2 -2 -1 -1 -1 -1 -1 -1 -1 -0 -0 -0 -1 -1 -0 -0 0 1
1 1 1 2 2 2 2 2 1 0 -0 0 1 2 3 3 3 2 1 -0 0 2 5 6 8 8 10 10 11 12 11 9 8 7 6 6 5 4 2 1 1 2 3 3 3 2 1 0 -1 -1 -2 -2 -2 -2 -1 -1 -1 -1 -1 -1 -1 -1 -0 -0 -0 -0 0 0 1
1 1 1 1 2 2 3 3 3 2 0 -1 0 2 4 4 4 3 1 -0 2 5 8 10 11 12 11 10 10 9 8 7 6 5 4 4 3 1 1 1 2 3 4 4 3 2 1 0 -1 -2 -2 -3 -2 -1 -1 -1 -2 -2 -2 -1 -1 -1 -1 -1 -0 -0 0 1 1
1 1 1 1 1 2 3 4 4 4 2 -0 -1 0 2 4 4 2 1 -1 0 2 4 6 7 7 7 6 5 4 3 3 3 2 1 -0 -1 -2 -2 -1 1 3 4 4 3 2 1 0 -1 -2 -3 -2 -1 -1 -1 -2 -2 -2 -2 -1 -1 -1 -1 -1 -0 -0 0 1 1
2 2 2 1 1 1 2 3 4 5 5 3 -0 -2 -1 0 2 2 1 0 0 1 3 4 4 4 4 3 2 1 0 0 -0 -0 -1 -2 -3 -3 -2 -1 1 2 3 4 3 2 1 -0 -2 -3 -3 -2 -1 -1 -2 -3 -3 -2 -2 -1 -1 -1 -1 -1 -0 0 1 1 1
2 2 2 2 1 1 1 1 3 4 6 7 5 1 -1 -3 -1 -0 0 0 0 1 2 3 4 4 3 3 1 0 -0 -1 -1 -1 -2 -2 -2 -2 -2 -1 0 2 3 4 4 3 1 -1 -2 -2 -2 -1 -1 -2 -3 -4 -3 -2 -1 -1 -1 -1 -1 -0 1 1 2 2 2
2 2 3 2 2 1 1 0 1 2 4 6 8 7 5 2 1 0 -0 -0 -1 -0 0 1 2 3 3 3 3 2 1 1 0 -0 -1 -2 -2 -2 -1 -1 0 2 4 5 4 3 1 -0 -1 -2 -2 -2 -2 -3 -4 -3 -2 -1 -0 -0 -1 -0 0 1 2 3 3 3 3
1 2 3 3 2 2 1 0 0 0 1 3 6 8 9 9 7 6 4 2 2 1 1 1 2 3 4 4 4 4 3 2 1 -0 -1 -1 -1 -1 -1 -0 1 2 4 5 4 3 2 0 -1 -1 -2 -2 -3 -3 -3 -3 -2 -1 -0 0 1 2 2 3 3 3 4 4 4
0 1 2 3 2 2 2 1 0 -0 -0 0 2 4 6 9 10 9 9 7 6 6 5 5 6 6 7 7 6 6 4 3 2 1 -0 -0 -0 0 1 1 2 3 3 4 4 3 2 1 0 -0 -1 -2 -2 -3 -3 -3 -2 -2 -1 -0 1 3 4 5 4 4 5 5 5
-1 0 1 2 2 2 2 2 2 1 -0 -1 -0 1 3 5 7 8 8 8 8 7 7 7 7 7 7 7 6 5 4 3 2 2 1 1 1 2 2 3 3 3 2 2 2 2 2 2 1 1 0 -0 -2 -2 -3 -3 -3 -3 -2 -1 1 3 4 5 5 5 5 6 5
-1 -1 -0 1 1 2 2 2 3 2 1 -0 -1 -1 -1 1 3 5 6 7 6 6 6 5 5 5 5 4 4 3 2 2 2 2 2 3 3 4 5 6 4 3 1 0 1 1 2 2 2 2 2 1 -1 -2 -3 -3 -3 -2 -1 -0 1 2 3 4 4 4 5 5 5
-1 -1 -1 -0 0 1 1 2 2 3 3 2 0 -1 -2 -2 -1 0 2 4 5 5 5 4 4 4 4 4 3 2 2 1 2 4 5 5 6 6 7 7 5 2 -0 -1 -1 -0 0 0 1 2 3 2 -1 -2 -3 -2 -1 -1 0 1 1 2 2 2 2 3 3 3 3
-0 -1 -1 -1 -1 0 1 1 2 2 3 3 2 1 -0 -1 -2 -2 -2 -1 1 2 3 3 3 4 4 4 4 4 4 4 4 6 7 7 7 7 7 6 4 1 -1 -2 -1 -1 -1 -1 1 3 4 2 -1 -2 -2 -1 0 1 1 1 2 2 2 1 2 2 2 2 1
Height
5550 5548 5547 5546 5545 5545 5545 5545 5545 5545 5545 5545 5544 5544 5544 5543 5543 5543 5543 5544 5545 5546 5547 5548 5549 5551 5554 5556 5559 5560 5560 5560 5561 5561 5561 5562 5564 5566 5569 5570 5572 5572 5573 5573 5574 5575 5577 5578 5579 5580 5580 5581 5581 5581 5581 5582 5583 5584 5585 5585 5586 5587 5588 5589 5590 5590 5591 5591 5592
5545 5543 5542 5541 5540 5538 5538 5538 5538 5539 5539 5539 5538 5538 5538 5538 5538 5538 5538 5539 5540 5541 5542 5543 5544 5545 5547 5550 5554 5555 5555 5556 5556 5556 5556 5557 5559 5561 5563 5565 5566 5568 5569 5569 5570 5571 5573 5574 5575 5575 5575 5575 5576 5576 5576 5576 5577 5579 5580 5580 5581 5582 5583 5584 5584 5585 5586 5586 5587
5539 5538 5536 5535 5534 5533 5532 5531 5531 5532 5532 5532 5532 5532 5532 5532 5532 5532 5533 5534 5535 5536 5537 5538 5538 5540 5542 5544 5547 5550 5551 5551 5551 5551 5551 5552 5554 5556 5558 5559 5560 5562 5563 5565 5566 5567 5568 5568 5569 5570 5570 5570 5570 5571 5571 5571 5572 5574 5575 5575 5576 5577 5578 5579 5579 5580 5581 5582 5583
5532 5531 5530 5529 5528 5527 5526 5525 5525 5525 5525 5525 5525 5526 5526 5526 5526 5527 5528 5529 5530 5530 5531 5532 5533 5535 5537 5539 5540 5543 5545 5545 5545 5545 5546 5547 5550 5551 5553 5555 5556 5557 5558 5560 5561 5562 5562 5563 5564 5564 5565 5565 5565 5565 5566 5566 5567 5569 5570 5570 5571 5572 5573 5574 5575 5575 5576 5577 5578
5525 5524 5523 5522 5521 5520 5520 5519 5518 5518 5518 5518 5519 5519 5520 5520 5521 5522 5522 5523 5524 5525 5525 5526 5528 5530 5531 5533 5535 5536 5538 5539 5540 5540 5541 5543 5545 5548 5549 5550 5551 5552 5554 5555 5556 5557 5558 5558 5558 5559 5559 5559 5560 5560 5560 5561 5562 5564 5565 5565 5567 5568 5569 5570 5570 5571 5572 5573 5574
5517 5516 5515 5515 5514 5513 5513 5512 5511 5511 5510 5511 5512 5512 5513 5514 5515 5516 5517 5518 5519 5520 5520 5521 5522 5524 5526 5528 5530 5531 5533 5534 5535 5537 5538 5539 5541 5543 5545 5546 5547 5548 5549 5550 5551 5552 5552 5553 5553 5553 5553 5553 5554 5555 5555 5556 5558 5559 5560 5562 5563 5564 5565 5566 5566 5567 5568 5569 5569
5509 5508 5507 5507 5506 5506 5505 5505 5505 5505 5504 5504 5505 5505 5506 5508 5510 5511 5511 5512 5513 5514 5514 5515 5517 5519 5521 5523 5525 5526 5528 5530 5531 5532 5533 5535 5537 5539 5540 5542 5543 5544 5544 5545 5545 5546 5547 5548 5548 5548 5548 5549 5550 5550 5551 5552 5553 5555 5556 5558 5559 5560 5561 5562 5562 5563 5564 5564 5565
5500 5500 5499 5498 5498 5498 5498 5498 5498 5498 5498 5498 5498 5499 5500 5501 5503 5505 5506 5507 5508 5508 5509 5510 5511 5513 5515 5517 5519 5521 5523 5525 5526 5527 5528 5530 5532 5534 5535 5537 5538 5539 5539 5540 5541 5542 5543 5544 5544 5544 5545 5545 5546 5546 5547 5548 5549 5551 5552 5554 5555 5556 5557 5558 5558 5559 5559 5560 5560
5492 5491 5491 5490 5490 5490 5490 5491 5491 5491 5492 5492 5492 5492 5493 5494 5496 5498 5501 5502 5502 5503 5504 5505 5506 5507 5510 5512 5514 5516 5518 5520 5522 5523 5524 5525 5527 5529 5530 5532 5534 5535 5535 5536 5537 5538 5539 5540 5540 5540 5541 5541 5542 5542 5543 5544 5545 5547 5548 5550 5551 5552 5553 5553 5554 5554 5555 5555 5556
5484 5484 5483 5483 5483 5483 5484 5484 5485 5485 5485 5485 5486 5486 5487 5488 5489 5491 5493 5496 5497 5499 5500 5500 5501 5503 5505 5507 5509 5511 5514 5516 5517 5518 5520 5522 5523 5524 5525 5527 5529 5530 5531 5532 5533 5534 5535 5535 5536 5536 5537 5538 5538 5539 5540 5541 5542 5543 5544 5545 5546 5547 5548 5549 5550 5550 5550 5551 5551
5478 5477 5477 5477 5477 5477 5478 5478 5479 5479 5479 5480 5480 5480 5481 5482 5483 5485 5488 5490 5493 5495 5495 5496 5497 5499 5500 5503 5505 5507 5509 5511 5513 5515 5516 5519 5520 5520 5521 5523 5524 5525 5526 5528 5529 5530 5530 5531 5532 5532 5533 5534 5535 5535 5536 5537 5538 5539 5540 5541 5542 5543 5544 5544 5545 5545 5546 5546 5547
5473 5472 5472 5472 5472 5472 5472 5473 5473 5473 5474 5474 5474 5475 5476 5477 5478 5480 5482 5486 5488 5489 5490 5491 5493 5495 5496 5499 5501 5503 5505 5507 5508 5510 5513 5515 5517 5518 5518 5519 5520 5521 5522 5523 5525 5525 5526 5527 5528 5528 5529 5530 5531 5531 5532 5533 5534 5535 5536 5537 5538 5539 5540 5540 5541 5541 5542 5542 5543
5469 5469 5468 5468 5468 5468 5468 5468 5468 5469 5469 5469 5469 5470 5471 5472 5473 5474 5476 5479 5481 5483 5485 5487 5489 5490 5492 5494 5496 5499 5501 5502 5504 5506 5509 5511 5513 5514 5515 5515 5516 5517 5518 5519 5520 5521 5522 5523 5524 5525 5525 5526 5527 5527 5528 5529 5530 5531 5532 5533 5534 5535 5536 5537 5537 5537 5538 5538 5539
5467 5466 5465 5465 5464 5464 5464 5464 5464 5464 5464 5465 5465 5465 5466 5467 5468 5470 5471 5473 5475 5478 5481 5484 5485 5485 5487 5490 5492 5494 5497 5499 5500 5502 5505 5507 5509 5510 5511 5511 5512 5513 5514 5515 5516 5518 5519 5520 5520 5521 5522 5523 5523 5524 5525 5526 5527 5528 5529 5530 5530 5531 5532 5533 5533 5533 5534 5534 5534
5465 5464 5463 5462 5461 5461 5461 5460 5460 5460 5460 5460 5461 5461 5462 5463 5464 5466 5467 5469 5471 5473 5476 5479 5480 5482 5484 5486 5488 5490 5493 5495 5497 5499 5501 5503 5505 5506 5507 5508 5509 5510 5510 5511 5513 5514 5515 5516 5517 5518 5519 5520 5520 5521 5522 5523 5524 5525 5525 5526 5527 5527 5528 5529 5529 5529 5530 5530 5530
5463 5462 5460 5460 5459 5458 5458 5457 5457 5457 5457 5457 5457 5458 5459 5460 5460 5462 5464 5465 5467 5469 5471 5474 5476 5479 5481 5482 5485 5487 5490 5493 5494 5495 5497 5499 5501 5502 5504 5505 5506 5507 5508 5509 5510 5510 5512 5513 5514 5515 5515 5516 5517 5517 5518 5519 5520 5521 5521 5522 5523 5523 5524 5525 5525 5525 5525 5526 5526
5461 5460 5459 5457 5456 5456 5455 5455 5454 5454 5454 5454 5454 5455 5455 5456 5457 5459 5460 5462 5463 5465 5467 5469 5472 5475 5477 5479 5482 5485 5489 5491 5492 5493 5494 5495 5497 5499 5501 5502 5503 5504 5505 5506 5507 5508 5509 5510 5511 5511 5512 5512 5513 5514 5515 5515 5516 5517 5517 5518 5519 5519 5520 5520 5521 5521 5522 5522 5523
5460 5458 5457 5455 5455 5454 5453 5452 5452 5451 5451 5451 5451 5451 5452 5453 5454 5455 5457 5458 5460 5462 5464 5466 5468 5470 5473 5476 5479 5483 5487 5489 5490 5490 5491 5492 5494 5496 5498 5499 5500 5501 5502 5503 5504 5505 5506 5507 5508 5508 5508 5509 5510 5510 5511 5512 5512 5513 5514 5514 5515 5515 5516 5516 5517 5517 5518 5518 5518
5458 5457 5455 5454 5453 5452 5451 5450 5449 5449 5448 5448 5448 5449 5449 5450 5451 5452 5454 5455 5457 5459 5460 5462 5465 5467 5470 5472 5475 5479 5483 5485 5486 5487 5488 5490 5491 5493 5495 5496 5497 5499 5500 5501 5502 5503 5504 5505 5505 5505 5505 5505 5506 5507 5507 5508 5509 5509 5510 5510 5510 5511 5512 5512 5513 5513 5514 5514 5514
5457 5455 5454 5452 5451 5450 5449 5448 5447 5446 5446 5445 5445 5446 5446 5447 5448 5450 5451 5452 5454 5455 5457 5459 5461 5464 5466 5468 5471 5475 5477 5479 5482 5484 5485 5486 5488 5490 5492 5493 5494 5496 5497 5499 5500 5500 5501 5501 5501 5501 5501 5502 5503 5503 5504 5504 5505 5505 5506 5506 5506 5507 5508 5508 5509 5509 5510 5510 5510
5455 5454 5452 5451 5450 5448 5447 5446 5445 5444 5444 5443 5443 5444 5444 5445 5446 5447 5448 5450 5451 5453 5455 5457 5459 5461 5463 5465 5468 5471 5473 5475 5477 5480 5482 5483 5485 5487 5488 5490 5491 5493 5495 5496 5497 5497 5497 5496 5497 5497 5498 5498 5499 5499 5500 5500 5501 5501 5501 5502 5502 5503 5504 5504 5505 5505 5506 5506 5506
5454 5452 5451 5450 5448 5447 5445 5444 5443 5442 5442 5441 5441 5442 5442 5443 5444 5445 5446 5447 5449 5451 5454 5456 5458 5460 5462 5464 5466 5468 5470 5472 5474 5476 5479 5480 5482 5484 5485 5487 5488 5490 5492 5493 5493 5492 5492 5492 5493 5493 5494 5494 5495 5495 5496 5496 5497 5497 5497 5498 5498 5499 5500 5500 5501 5501 5502 5502 5503
5453 5451 5450 5448 5446 5445 5444 5442 5441 5440 5440 5440 5440 5440 5441 5441 5442 5443 5444 5446 5448 5450 5453 5455 5458 5459 5460 5461 5463 5465 5467 5469 5471 5473 5475 5477 5478 5480 5482 5484 5485 5487 5488 5489 5488 5488 5488 5488 5489 5490 5490 5491 5491 5492 5492 5493 5493 5493 5494 5494 5495 5495 5496 5496 5497 5498 5498 5498 5499
5452 5450 5449 5447 5445 5444 5442 5441 5440 5439 5439 5439 5439 5439 5440 5440 5440 5441 5443 5444 5446 5448 5451 5453 5455 5456 5457 5459 5460 5462 5464 5466 5469 5470 5472 5473 5474 5476 5478 5480 5482 5483 5484 5484 5483 5483 5484 5485 5486 5487 5487 5488 5488 5489 5489 5489 5490 5490 5490 5491 5491 5492 5492 5493 5493 5494 5494 5495 5495
5451 5449 5448 5446 5444 5443 5441 5440 5439 5438 5438 5437 5438 5438 5439 5439 5440 5440 5441 5443 5444 5446 5448 5449 5451 5453 5455 5456 5458 5460 5462 5464 5466 5467 5468 5469 5470 5472 5474 5476 5478 5479 5479 5479 5479 5480 5481 5482 5483 5483 5484 5484 5485 5485 5485 5486 5486 5486 5487 5487 5488 5488 5489 5489 5490 5490 5490 5491 5491
5450 5449 5447 5445 5444 5442 5440 5439 5438 5438 5437 5437 5437 5438 5438 5438 5439 5439 5440 5441 5443 5444 5445 5446 5448 5450 5452 5455 5456 5459 5460 5462 5463 5464 5465 5465 5467 5469 5471 5472 5474 5475 5475 5475 5476 5477 5478 5479 5479 5480 5480 5480 5481 5482 5482 5483 5483 5483 5484 5484 5485 5485 5485 5486 5486 5486 5486 5487 5487
5450 5448 5446 5445 5443 5441 5440 5439 5438 5437 5436 5436 5437 5437 5438 5438 5438 5438 5439 5440 5441 5443 5444 5445 5446 5448 5450 5452 5455 5456 5458 5459 5460 5460 5461 5462 5464 5466 5467 5469 5470 5471 5471 5472 5473 5474 5475 5475 5476 5476 5476 5477 5478 5478 5479 5479 5480 5480 5480 5481 5481 5481 5482 5482 5482 5483 5483 5483 5483
5449 5447 5446 5444 5443 5441 5440 5438 5437 5436 5436 5435 5436 5436 5437 5437 5437 5438 5438 5439 5440 5442 5443 5445 5446 5447 5449 5451 5453 5454 5455 5456 5457 5457 5458 5460 5461 5463 5464 5465 5466 5467 5468 5470 5470 5471 5472 5472 5472 5473 5473 5474 5474 5475 5475 5476 5476 5477 5477 5477 5478 5478 5478 5478 5479 5479 5479 5480 5480
5448 5447 5445 5444 5442 5441 5439 5438 5437 5436 5435 5435 5435 5435 5435 5436 5436 5437 5437 5439 5440 5441 5442 5444 5445 5446 5448 5449 5451 5452 5453 5454 5454 5455 5456 5457 5458 5460 5461 5462 5463 5465 5466 5467 5467 5468 5468 5469 5469 5470 5470 5470 5471 5471 5472 5473 5473 5473 5474 5474 5474 5474 5475 5475 5475 5475 5476 5476 5477
5448 5446 5445 5444 5442 5441 5439 5438 5436 5435 5435 5434 5434 5434 5434 5435 5435 5436 5437 5438 5439 5440 5442 5443 5444 5445 5446 5448 5449 5450 5450 5451 5452 5452 5453 5454 5455 5457 5458 5460 5461 5462 5463 5464 5465 5465 5465 5465 5466 5466 5467 5467 5468 5468 5469 5469 5470 5470 5470 5470 5470 5471 5471 5472 5472 5472 5473 5473 5474
5447 5445 5445 5443 5442 5440 5439 5438 5436 5435 5435 5434 5434 5434 5434 5434 5435 5435 5436 5437 5438 5439 5440 5441 5442 5444 5445 5445 5446 5447 5448 5449 5449 5450 5451 5452 5453 5455 5456 5457 5459 5460 5460 5461 5461 5462 5462 5462 5463 5463 5464 5464 5465 5465 5465 5466 5467 5467 5467 5467 5467 5468 5468 5468 5469 5470 5470 5470 5471
5446 5445 5444 5443 5442 5440 5439 5438 5437 5435 5435 5434 5434 5433 5434 5434 5434 5435 5435 5436 5436 5437 5439 5440 5441 5442 5442 5443 5444 5445 5445 5446 5447 5448 5449 5450 5451 5452 5453 5455 5456 5457 5458 5458 5458 5459 5459 5459 5460 5460 5460 5461 5461 5462 5463 5463 5463 5464 5464 5464 5464 5465 5465 5465 5466 5467 5467 5468 5468
5446 5445 5443 5442 5441 5440 5439 5438 5437 5436 5435 5434 5434 5433 5433 5433 5434 5434 5434 5435 5435 5436 5437 5438 5439 5440 5441 5441 5442 5442 5443 5444 5445 5445 5446 5448 5449 5450 5451 5452 5453 5454 5455 5455 5455 5455 5456 5456 5456 5457 5457 5458 5458 5459 5460 5460 5460 5460 5461 5461 5461 5462 5462 5463 5464 5464 5464 5465 5465
5445 5444 5443 5441 5440 5440 5439 5437 5437 5436 5435 5435 5434 5433 5433 5433 5434 5434 5434 5434 5435 5435 5436 5437 5437 5438 5439 5440 5440 5440 5441 5441 5442 5444 5445 5445 5446 5448 5449 5450 5450 5451 5451 5452 5452 5452 5453 5453 5453 5454 5454 5455 5455 5456 5456 5457 5458 5458 5458 5458 5459 5459 5460 5460 5461 5461 5461 5462 5462
5445 5443 5442 5441 5440 5439 5438 5437 5436 5435 5435 5435 5434 5434 5433 5433 5433 5434 5434 5433 5434 5434 5435 5435 5435 5436 5437 5437 5438 5439 5439 5440 5440 5441 5442 5443 5444 5445 5446 5447 5447 5448 5448 5449 5449 5450 5450 5450 5450 5451 5451 5452 5452 5453 5454 5454 5455 5455 5455 5456 5456 5457 5457 5457 5458 5458 5458 5459 5459
5444 5442 5441 5440 5439 5438 5437 5436 5436 5435 5435 5434 5434 5433 5433 5433 5433 5433 5433 5433 5433 5433 5433 5434 5434 5435 5435 5436 5436 5437 5438 5438 5439 5440 5440 5441 5442 5443 5444 5444 5444 5445 5445 5445 5446 5446 5447 5447 5448 5448 5449 5449 5450 5450 5451 5451 5452 5452 5453 5453 5454 5454 5454 5455 5455 5455 5455 5456 5457
5443 5441 5440 5439 5438 5437 5436 5435 5435 5435 5434 5433 5433 5432 5432 5432 5432 5432 5432 5432 5432 5432 5432 5433 5433 5434 5434 5435 5435 5436 5436 5437 5437 5438 5439 5440 5440 5440 5441 5441 5441 5442 5442 5442 5443 5443 5444 5445 5445 5445 5446 5446 5447 5447 5448 5448 5449 5449 5450 5450 5451 5451 5451 5452 5452 5452 5453 5453 5454
5441 5440 5439 5438 5437 5436 5435 5435 5434 5433 5433 5433 5432 5432 5431 5431 5431 5431 5431 5431 5431 5431 5431 5431 5432 5432 5433 5433 5433 5434 5434 5435 5435 5436 5437 5437 5438 5438 5439 5439 5439 5439 5439 5439 5440 5440 5441 5442 5442 5443 5443 5444 5444 5444 5445 5445 5445 5446 5447 5447 5448 5448 5449 5449 5449 5449 5450 5450 5451
5440 5439 5438 5437 5436 5435 5434 5433 5433 5432 5432 5431 5431 5431 5430 5430 5430 5430 5430 5430 5430 5430 5430 5430 5430 5430 5431 5431 5431 5431 5432 5432 5433 5434 5435 5435 5435 5436 5436 5436 5436 5436 5436 5436 5436 5437 5438 5439 5439 5440 5440 5441 5441 5441 5441 5442 5442 5443 5444 5444 5445 5445 5445 5446 5446 5446 5447 5448 5448
5438 5437 5436 5435 5435 5434 5433 5432 5431 5430 5430 5430 5430 5429 5429 5429 5429 5428 5428 5428 5428 5428 5428 5429 5429 5429 5429 5429 5429 5430 5430 5430 5431 5431 5432 5432 5433 5433 5433 5433 5433 5433 5433 5433 5433 5434 5435 5435 5436 5437 5437 5437 5437 5438 5438 5439 5439 5440 5440 5441 5442 5442 5442 5443 5443 5443 5444 5445 5445
5436 5435 5435 5434 5433 5432 5431 5430 5430 5429 5428 5428 5428 5427 5427 5427 5426 5426 5426 5426 5426 5426 5426 5427 5427 5427 5427 5427 5427 5427 5428 5428 5428 5429 5429 5429 5430 5430 5430 5430 5430 5430 5430 5430 5430 5430 5431 5432 5433 5434 5434 5434 5434 5434 5435 5435 5436 5437 5437 5438 5438 5439 5439 5440 5440 5440 5441 5441 5441